Regional Weather Roundup
Issued by NWS Boston, MA

Home | Current Version | Previous Version | Text Only | Print | Product List | Glossary On
Versions: 1 2 3 4 5 6 7 8 9 10 11 12 13 14 15 16 17 18 19 20 21 22 23 24 25 26 27 28 29 30 31 32 33 34 35 36 37 38 39 40 41 42 43 44 45 46 47 48 49 50
000
ASUS41 KBOX 212010
RWRBOX

REGIONAL WEATHER ROUNDUP
NATIONAL WEATHER SERVICE TAUNTON MA
400 PM EDT SUN SEP 21 2014

NOTE:  "FAIR" INDICATES FEW OR NO CLOUDS BELOW 12,000 FEET WITH NO
SIGNIFICANT WEATHER AND/OR OBSTRUCTIONS TO VISIBILITY.  THE FOLLOWING
OBSERVATION LOCATIONS DO NOT REPORT PRESENT WEATHER...PROVINCETOWN...
SMITHFIELD...BLOCK ISLAND...KEENE...AND OXFORD.

MAZALL-212100-
EASTERN MASSACHUSETTS

CITY           SKY/WX    TMP DP  RH WIND       PRES   REMARKS
BOSTON         CLOUDY    71  65  81 E7        29.71F
BEVERLY        CLOUDY    71  66  84 SE9       29.72F
LAWRENCE       CLOUDY    77  68  73 SE8       29.73F
BEDFORD        CLOUDY    77  68  73 S7        29.69F
BLUE HILL        N/A     76  67  73 S9        29.72F
NORWOOD        CLOUDY    78  68  71 SE6       29.70F
MARSHFIELD     NOT AVBL
PLYMOUTH       CLOUDY    74  67  78 VRB5      29.73F
TAUNTON        CLOUDY    76  69  79 S5        29.71F
NEW BEDFORD    CLOUDY    73  69  87 SE10      29.70F
$$

MAZALL-212100-
CAPE COD AND THE ISLANDS

CITY           SKY/WX    TMP DP  RH WIND       PRES   REMARKS
FALMOUTH       CLOUDY    72  70  94 SE10      29.72F
HYANNIS        CLOUDY    70  68  93 SE5       29.71F FOG
CHATHAM        FOG       68  67  96 SE8       29.73F VSB 1/2
PROVINCETOWN   CLOUDY    72  68  88 SE10      29.73F
NANTUCKET      LGT RAIN  67  66  97 SE10      29.72F FOG
MARTHAS VNYRD  LGT RAIN  70  68  93 SE8       29.71F FOG
$$

MAZALL-212100-
CENTRAL AND WESTERN MASSACHUSETTS

CITY           SKY/WX    TMP DP  RH WIND       PRES   REMARKS
WORCESTER      LGT RAIN  71  68  90 S8        29.74F
FITCHBURG      CLOUDY    77  67  71 S9        29.72F
ORANGE         CLOUDY    75  68  78 S8        29.71F
SPRINGFIELD    PTSUNNY   77  70  80 VRB3      29.69F
WESTFIELD      CLOUDY    77  69  76 SW7       29.69F
NORTH ADAMS    PTSUNNY   77  64  64 SE5       29.68F
PITTSFIELD     PTSUNNY   72  64  76 S10       29.70F
$$

RIZALL-212100-
RHODE ISLAND

CITY           SKY/WX    TMP DP  RH WIND       PRES   REMARKS
PROVIDENCE     LGT RAIN  73  69  87 S10       29.72F
NEWPORT        CLOUDY    72  69  90 SE8       29.71F
BLOCK ISLAND   CLOUDY    72  66  83 S14       29.70F
SMITHFIELD     CLOUDY    72  66  83 S3        29.73F
WESTERLY       CLOUDY    72  69  90 SE8       29.71F
$$

CTZALL-212100-
CONNECTICUT

CITY           SKY/WX    TMP DP  RH WIND       PRES   REMARKS
BRADLEY INTL   CLOUDY    78  69  73 S7        29.68F
HARTFORD       CLOUDY    75  70  84 SE12      29.68F
BRIDGEPORT     CLOUDY    77  69  76 SW6       29.69F
DANBURY        LGT RAIN  72  69  90 S5        29.70F FOG
GROTON         CLOUDY    71  70  96 SE8       29.69F FOG
NEW HAVEN      CLOUDY    77  70  79 S3        29.69F
CHESTER        PTSUNNY   73  72  94 SE3       29.71F
MERIDEN        CLOUDY    76  68  76 S7        29.68F
WILLIMANTIC    CLOUDY    75  70  84 MISG      29.70F
OXFORD         CLOUDY    73  66  78 SW85      29.73F
$$

MEZ002-015-021-024-NHZ003-005-008-011-012-014-VTZ005-008-212100-
NORTHERN NEW ENGLAND

CITY           SKY/WX    TMP DP  RH WIND       PRES   REMARKS
PORTLAND ME    CLOUDY    66  64  93 S6        29.75F FOG
BANGOR ME      PTSUNNY   70  64  81 S14G23    29.78F
CONCORD NH     CLOUDY    77  68  73 SE7       29.71F
MANCHESTER NH  CLOUDY    78  66  66 S9        29.69F
NASHUA NH      CLOUDY    78  68  71 SE8       29.71F
PORTSMOUTH NH  CLOUDY    71  66  85 SE14      29.71F
JAFFREY NH     CLOUDY    75  66  73 S9        29.74F
KEENE NH       CLOUDY    75  63  64 SW5       29.71F
BURLINGTON VT  CLOUDY    79  57  46 S15G26    29.59F
MT. WASHINGTON FOG       52  52 100 SW35G52     N/A  VSB 1/16
$$

NYZ052-076-212100-
EASTERN NEW YORK

CITY           SKY/WX    TMP DP  RH WIND       PRES   REMARKS
ALBANY         PTSUNNY   79  64  60 S13G25    29.63F
NEW YORK CITY  CLOUDY    74  67  78 NE3       29.68F
$$

ANZALL-212100-
MARINE OBSERVATIONS

STATION/POSITION TIME  TEMP    WIND        PRES    VSBY  WAVE
                       AIR SEA DIR/SP/G                  HT/PER
                 (UTC) (F)     (DEG/KT/KT) (MB)    (MI)  (FT/S)
BOSTON BUOY      1950   65 62  140/ 12/ 14 1006.7F         2/11
BUZZARDS BAY     1900          120/ 12/ 13 1007.3F
NANTUCKET SOUND  1950   67 68  110/ 10/ 12 1006.3F         1/ 5
MASS BAY-STELLWA 1904   64 61  120/ 10/ 12   N/A    1 3/4  2/ 4
ISLE OF SHOALS   2000   63     140/ 19/ 19 1005.9F
S OF BLOCK IS    1908      67                N/A           4/ 6
$$

......................KEY.........................
  SKY/WX - SKY CONDITION/PRESENT WEATHER
  TMP    - TEMPERATURE IN FAHRENHEIT
  DWPT   - DEWPOINT IN FAHRENHEIT
  RH     - RELATIVE HUMIDITY IN PERCENT
  WIND   - DIRECTION AND SPEED IN MPH
  PRES   - MEAN SEA LEVEL PRESSURE IN INCHES OF HG
  WCI    - WIND CHILL INDEX
  VSB    - VISIBILITY IN MILES
  HX     - HEAT INDEX
  TC     - TEMPERATURE IN CELSIUS
  VRB    - VARIABLE WIND DIRECTION
  N/A    - NOT AVAILABLE


USA.gov is the U.S. government's official web portal to all federal, state and local government web resources and services.